Location: Red Rock Farm
(35.2100°N, 97.2200°W)
Time: 17:48:06
(UTC-05:00)

Daily predictions for brighter satellites

Satellite Brightness Start Highest point End
(mag) Time Altitude Azimuth Time Altitude Azimuth Time Altitude Azimuth
Cosmos 1727 Rocket 4.1 21:05:38 10° S 21:11:54 73° E 21:18:14 10° N
ATLAS 5 CENTAUR R/B 2.5 21:09:13 10° SW 21:13:44 59° NW 21:18:38 10° NNE
Cosmos 2263 Rocket 4.0 21:13:58 10° ESE 21:14:41 10° E 21:15:25 10° E
OAO 1 Rocket 4.5 21:09:40 10° W 21:15:04 85° S 21:20:26 10° E
Abrixas 3.1 21:15:18 10° SSW 21:17:40 28° SE 21:20:03 10° ENE
Helios 1B rocket 2.7 21:17:33 10° NNE 21:21:34 46° E 21:25:31 10° S
Okean 3 Rocket 3.6 21:22:56 10° S 21:27:21 62° E 21:31:46 10° NNE
Cosmos 1570 Rocket 4.2 21:23:50 10° N 21:29:02 55° ENE 21:34:10 10° SSE
Spot 1 4.4 21:25:53 10° SE 21:29:46 45° ENE 21:33:49 10° N
USA 32 4.0 21:25:27 10° S 21:30:41 84° E 21:35:57 10° N
SAR-Lupe-4 4.4 21:28:17 10° SE 21:31:32 33° ENE 21:34:47 10° N
Cosmos 1766 Rocket 4.4 21:28:54 10° SSE 21:32:41 31° E 21:36:31 10° NNE
CZ-4B DEB 4.5 21:29:25 10° SSE 21:32:57 75° ENE 21:36:31 10° N
Helios 1A 3.0 21:31:50 10° SSE 21:35:55 63° ENE 21:40:01 10° N
USA 234 4.0 21:32:54 10° ENE 21:38:24 29° SE 21:43:52 10° S
Meteor 1-21 Rocket 4.3 21:33:25 10° S 21:38:59 59° E 21:44:28 10° NNE
Cosmos 1356 Rocket 3.5 21:36:22 10° S 21:40:34 64° E 21:44:50 10° NNE
Cosmos 2237 Rocket 3.8 21:36:29 10° NW 21:41:22 31° WSW 21:46:14 10° SSW
CZ-4B DEB 2.9 21:38:54 13° SSE 21:41:23 46° ENE 21:44:15 10° N
Cosmos 1242 Rocket 2.9 21:39:42 10° N 21:43:19 47° E 21:46:19 14° SSE
Cosmos 1674 2.6 21:40:18 10° S 21:44:03 73° E 21:47:48 10° N
Delta 2 Rocket 4.1 21:39:00 10° WSW 21:44:30 66° SSE 21:50:16 10° E
ERS-1 Rocket 3.7 21:41:50 13° SE 21:45:57 38° ENE 21:50:36 10° N
ARGOS 4.3 21:46:39 14° ESE 21:50:20 27° ENE 21:54:50 10° NNE
SAR-Lupe-1 4.3 21:48:21 15° SSE 21:51:08 52° ENE 21:54:39 10° N
Cosmos 1603 4.4 21:46:26 10° N 21:51:43 39° ENE 21:55:40 17° SE
RESURS DK-1 3.4 21:48:24 10° N 21:52:09 31° ENE 21:54:38 17° ESE
SJ-11-01 4.4 21:48:26 10° S 21:53:10 78° WSW 21:57:56 10° NNW
Cosmos 220 Rocket 4.2 21:57:29 10° S 22:01:45 50° ESE 22:06:01 10° NNE
Resurs 01 Rocket 4.1 21:58:53 10° SW 22:02:04 20° W 22:05:17 10° NW
Cosmos 1939 Rocket 3.6 21:58:40 10° S 22:02:34 52° W 22:06:32 10° NNW
Cosmos 1908 3.3 22:00:51 10° N 22:04:43 79° W 22:07:55 14° S
Cosmos 371 Rocket 4.3 22:00:39 10° N 22:04:57 31° ENE 22:07:24 20° ESE
Cosmos 2228 Rocket 4.3 22:01:30 10° NNE 22:05:25 27° ENE 22:07:16 21° ESE
SL-16 R/B 3.0 22:02:42 10° NNW 22:08:07 47° WSW 22:13:29 10° S
KORONAS-FOTON 3.8 22:04:23 10° S 22:08:10 82° W 22:11:58 10° N
Cosmos 1459 Rocket 4.0 22:07:42 10° N 22:14:00 86° W 22:19:38 13° S
GPS 2-05 Rocket1 2.3 22:13:22 10° WSW 22:16:28 80° S 22:17:46 31° E
ERBS 3.7 22:14:15 10° NNW 22:17:15 29° NE 22:18:29 23° E
H-2A R/B 3.1 22:17:23 22° ESE 22:19:53 33° ENE 22:24:41 10° N
H-2A ROCKET BODY 2.8 22:22:26 10° SW 22:25:32 31° SSE 22:34:25 10° E
Cosmos 2100 Rocket 4.4 22:19:31 10° NNW 22:25:46 64° W 22:31:57 10° S
SPOT 5 3.2 22:24:13 28° SE 22:26:30 52° ENE 22:31:27 10° N
SL-08 RB Rocket 4.2 22:25:51 30° SE 22:27:38 46° ENE 22:32:03 10° N
Cosmos 2151 3.7 22:27:50 32° ESE 22:28:39 35° E 22:32:35 10° NNE
Lacrosse 5 1.8 22:23:39 10° NW 22:28:44 77° NE 22:31:05 32° SE
Abrixas rocket 3.6 22:25:55 10° NW 22:28:50 30° NNE 22:29:56 24° ENE
YAOGAN 6 4.1 22:26:34 13° SSW 22:29:24 33° W 22:32:46 10° NNW
Cosmos 1408 Rocket 4.3 22:26:44 10° SSW 22:30:55 52° W 22:35:10 10° N
Cosmos 2123 Rocket 3.9 22:25:58 14° S 22:31:22 80° E 22:37:35 10° N
Cosmos 2173 Rocket 4.4 22:26:05 10° NNW 22:32:11 62° W 22:37:51 12° S
NOAA 11 4.2 22:29:14 22° S 22:32:50 81° WSW 22:38:18 10° NNW
Meteor 2-10 4.3 22:28:09 10° N 22:33:46 63° E 22:36:32 31° SSE
Atlas Centaur 2 3.3 22:35:40 10° SW 22:36:52 12° SSW 22:36:52 12° SSW
Cosmos 1626 3.3 22:38:04 28° ENE 22:38:04 28° ENE 22:40:51 10° NNE
MetOp-B 4.1 22:34:37 26° S 22:37:46 85° WSW 22:43:09 10° NNW
Cosmos 1356 3.8 22:38:51 46° E 22:38:51 46° E 22:42:05 10° NNE
Cosmos 1703 4.3 22:39:14 30° E 22:39:14 30° E 22:42:33 10° NNE
Cosmos 1726 2.4 22:40:40 10° NNW 22:44:17 62° W 22:45:24 40° SSW
Cosmos 1354 Rocket 4.1 22:45:33 38° SSE 22:47:11 52° ESE 22:52:16 10° NNE
Tiangong 1 2.7 22:46:53 10° NW 22:49:16 24° NNE 22:49:35 24° NNE
Cosmos 1814 Rocket 4.0 22:44:23 10° NNW 22:49:44 86° WSW 22:51:48 38° SSE
Terra 2.9 22:50:32 28° E 22:51:18 30° ENE 22:55:25 10° N
Meteor 1-11 4.2 22:48:57 29° S 22:52:03 76° E 22:57:52 10° NNE
Cosmos 1500 Rocket 3.5 22:50:42 41° S 22:52:15 87° E 22:56:43 10° N
Cosmos 1763 Rocket 3.3 22:49:54 10° NNW 22:55:01 82° ENE 22:56:30 47° SSE
Cosmos 841 Rocket 3.6 22:50:07 10° N 22:55:19 63° ENE 22:56:41 45° SE
Milstar 3 Cent rocket 4.3 22:48:51 10° WSW 22:55:50 35° SSW 23:00:26 27° SSE
Cosmos 332 Rocket 4.2 22:51:43 10° NNW 22:56:32 58° WSW 22:58:23 35° SSW
Cosmos 1486 Rocket 4.5 22:51:29 10° SSW 22:56:40 60° WNW 23:01:55 10° N
Cosmos 1725 Rocket 4.0 22:51:25 10° N 22:57:39 79° W 23:00:51 31° S
Cosmos 2263 Rocket 2.2 22:52:37 12° SSW 22:57:46 81° WNW 23:03:23 10° NNE
Cosmos 1300 3.3 22:56:46 10° NNW 23:00:30 51° W 23:01:19 42° SW
OAO 1 Rocket 4.3 22:55:25 10° W 23:00:48 81° S 23:02:27 45° ESE
IGS 5A 4.4 23:02:53 34° ENE 23:02:53 34° ENE 23:06:35 10° N
CARTOSAT-1 4.3 23:03:22 37° ENE 23:03:28 38° ENE 23:07:27 10° N
DMSP B5D2-2 3.9 23:05:43 10° NNE 23:10:57 82° ESE 23:12:26 48° S
Cosmos 1805 Rocket 4.5 23:12:37 35° ENE 23:12:37 35° ENE 23:15:51 10° NNE
Meteor 1-27 4.2 23:06:01 10° N 23:11:50 83° E 23:13:25 50° SSE
SPOT 1/Viking Rocket 3.6 23:13:42 47° SSW 23:15:07 70° WSW 23:20:16 10° NNW
Cosmos 1151 Rocket 3.0 23:11:36 10° N 23:15:59 77° W 23:16:22 70° SSW
SWAS 4.4 23:18:52 79° ENE 23:18:52 79° ENE 23:23:00 10° NNE
USA 234 3.6 23:15:09 10° NE 23:21:38 67° NW 23:28:05 10° WSW
Cosmos 1464 Rocket 4.5 23:17:39 10° N 23:23:29 42° E 23:24:20 40° E
H-2A R/B 2.6 23:24:41 46° NE 23:24:41 46° NE 23:28:23 10° N
Cosmos 1515 Rocket 4.3 23:20:19 10° NNW 23:24:26 44° W 23:25:09 40° WSW
Delta 2 Rocket 4.1 23:21:39 10° W 23:27:26 85° N 23:29:26 43° E
Cosmos 2058 3.7 23:26:59 42° WSW 23:27:42 46° W 23:31:46 10° N
Cosmos 836 Rocket 4.4 23:24:15 10° NNW 23:29:33 73° ENE 23:30:01 68° ESE
ARGOS 4.4 23:28:10 24° SW 23:30:24 33° W 23:35:15 10° NW
Cosmos 1844 Rocket 3.6 23:31:42 33° ENE 23:31:42 33° ENE 23:35:36 10° NE
CZ-4C R/B 2.0 23:31:21 62° E 23:31:21 62° E 23:36:38 10° NE
Cosmos 1455 3.0 23:29:28 10° N 23:32:20 47° NNE 23:32:20 47° NNE
Cosmos 540 Rocket 3.3 23:43:13 10° NNW 23:48:19 87° NW 23:48:19 87° NW
Cosmos 1943 4.0 23:43:24 10° NW 23:48:38 40° WSW 23:49:30 37° SW
CZ-4B R/B 3.5 23:44:45 10° NNE 23:49:41 70° ENE 23:49:41 70° ENE
Cosmos 968 Rocket 3.7 23:52:31 61° ENE 23:52:31 61° ENE 23:57:04 10° NNE
